[[{"header":{"parameterUnit":"m.s-1","parameterCategory":1,"la1":30.2991,"la2":30.254,"lo1":-89.0895,"lo2":-89.0444,"dy":0.0017,"dx":0.0017,"nx":28,"ny":28,"refTime":"2025-09-14T03:00:00:Z","depth":0,"parameterNumber":2,"parameterNumberName":"U-component_of_WINDS"},"data":[0,0,0,0,0,0,0,0,0,0,0,0,0,0,0,0,0,0,0,0,0,0,0,0,0,0,0,0,0,0,0,0,0,0,0,0,0,0,0,0,0,0,0,0,0,0,0,0,0,0,0,0,0,0,0,0,0,0,0.0388,0.0388,0,0.0385,0.0385,0.0384,0.0377,0.0377,0.0377,0.0377,0.0374,0.0374,0.0375,0,0,0,0,0,0,0,0,0,0,0,0,0,0.0388,0.0388,0.0388,0.0388,0.0388,0.0385,0.0385,0.0384,0.0377,0.0377,0.0377,0.0376,0.0374,0.0374,0.0375,0,0,0,0,0,0,0,0,0,0,0,0,0,0.0387,0.0388,0.0388,0.0384,0.0383,0.0385,0.0385,0.0384,0.0377,0.0377,0.0377,0.0376,0.0374,0.0374,0.0375,0.038,0,0,0.0375,0.0375,0,0,0,0,0,0,0,0,0.0387,0.0387,0.0384,0.0384,0.0383,0.0381,0.0384,0.0383,0.0377,0.0379,0.0377,0.0376,0.0377,0.0377,0.0377,0.038,0.038,0.0375,0.0375,0.0375,0.0375,0,0,0,0,0,0,0,0.0387,0.0387,0.0386,0.0384,0.0384,0.0382,0.0382,0.0384,0.038,0.0379,0.0379,0.0378,0.0377,0.0377,0.0377,0.038,0.0375,0.0375,0.0375,0.0375,0.0387,0.0387,0,0,0,0,0,0,0.0387,0.0387,0.0387,0.0386,0.0384,0.0382,0.0382,0.0382,0.0379,0.0379,0.0379,0.0378,0.0376,0.0376,0.0376,0.0382,0.0375,0.0375,0.0375,0.0387,0.0387,0.0387,0,0,0,0,0,0,0.0387,0.0387,0.0387,0.0386,0.0386,0.0382,0.0383,0.0382,0.0382,0.0379,0.0378,0.0379,0.0376,0.0376,0.0379,0.0382,0.0375,0.0375,0.0387,0.0387,0.0387,0.0394,0,0,0,0,0,0,0.0387,0.0388,0.0389,0.0387,0.0386,0.0389,0.0383,0.0382,0.0382,0.0381,0.0379,0.0379,0.0376,0.0379,0.0379,0.0382,0.0376,0.0386,0.0387,0.0387,0.0394,0.0395,0.0396,0,0,0,0,0,0.0388,0.0392,0.039,0.039,0.0389,0.0389,0.0389,0.0386,0.0382,0.0384,0.0382,0.0379,0.0382,0.0379,0.038,0.0383,0.0386,0.0387,0.0387,0.0393,0.0395,0.0396,0,0,0,0,0,0,0.0396,0.0391,0.0389,0.0392,0.0391,0.0388,0.039,0.0387,0.0387,0.0387,0.0382,0.0382,0.0385,0.0384,0.0382,0.0388,0.0383,0.0384,0.0388,0.0389,0.039,0.039,0.0376,0,0,0,0,0,0.0398,0.0399,0.0395,0.0398,0.0398,0.0394,0.0395,0.0392,0.0391,0.039,0.0388,0.0388,0.0388,0.0389,0.0389,0.0394,0.0393,0.0396,0.0397,0.0398,0.0398,0.04,0.0401,0.0389,0.0389,0.0389,0,0,0.0402,0.04,0.0401,0.04,0.0399,0.04,0.0394,0.0395,0.0396,0.0391,0.0393,0.0391,0.039,0.0394,0.0395,0.0393,0.0402,0.0399,0.0399,0.0399,0.0401,0.0402,0.0403,0.039,0.0389,0.0389,0,0,0.0411,0.041,0.0412,0.0411,0.0409,0.0406,0.0407,0.0404,0.0403,0.0405,0.0401,0.0402,0.0403,0.0402,0.0402,0.041,0.0407,0.041,0.0416,0.0417,0.0418,0.0419,0.0422,0.0423,0.0411,0.0411,0.0411,0,0.0417,0.0418,0.0414,0.0415,0.0415,0.0409,0.0412,0.0411,0.041,0.041,0.0407,0.0408,0.0407,0.041,0.0412,0.0412,0.0413,0.041,0.0419,0.0419,0.042,0.0422,0.0423,0.0411,0.0411,0.0411,0.0411,0,0.0425,0.0426,0.0428,0.0426,0.0426,0.0428,0.0424,0.0425,0.0422,0.042,0.0422,0.0421,0.042,0.0421,0.0419,0.0424,0.0422,0.0419,0.0415,0.0422,0.0424,0.0425,0.0412,0.0412,0.0412,0.0412,0,0,0.0439,0.0434,0.0435,0.0434,0.0431,0.0432,0.0434,0.0433,0.0433,0.0433,0.0434,0.0435,0.0432,0.0432,0.0429,0.0431,0.0437,0.0428,0.0428,0.0429,0.0442,0.0444,0.0445,0.0435,0.0435,0.0435,0.0442,0,0.0446,0.0449,0.0445,0.0448,0.0449,0.0443,0.0445,0.0444,0.0442,0.0442,0.044,0.044,0.0437,0.0436,0.0438,0.0436,0.0439,0.0435,0.0436,0.0436,0.0436,0.0446,0.0448,0.0454,0.0442,0.0443,0.0443,0,0.0455,0.0455,0.0458,0.0454,0.0455,0.0456,0.0455,0.0455,0.0454,0.0452,0.0452,0.0448,0.045,0.0446,0.0448,0.0445,0.0445,0.0444,0.0444,0.0444,0.0439,0.0445,0.0456,0.0457,0.0444,0.0444,0.0444,0,0.0464,0.0464,0.0466,0.0465,0.0462,0.0462,0.0461,0.0459,0.0459,0.0458,0.0458,0.0458,0.0457,0.0457,0.0454,0.0451,0.0456,0.0452,0.0455,0.0455,0.0456,0.0456,0.0467,0.0457,0.0457,0.0457,0.0457,0,0.0473,0.0475,0.047,0.0471,0.0473,0.0468,0.0471,0.0469,0.0467,0.0468,0.0464,0.0464,0.046,0.0461,0.0458,0.046,0.046,0.0459,0.0458,0.0459,0.0459,0.0459,0.0458,0.0457,0.0457,0.0457,0.0457,0,0.0483,0.048,0.0481,0.0477,0.0477,0.0478,0.0475,0.0476,0.0474,0.0475,0.0475,0.0471,0.0471,0.0468,0.0468,0.0466,0.0469,0.0467,0.0469,0.0469,0.0471,0.0471,0.0482,0.0483,0.0473,0.0473,0.0473,0,0.0489,0.049,0.0486,0.0486,0.0485,0.0485,0.0485,0.0481,0.0481,0.0479,0.048,0.0479,0.0479,0.0479,0.0477,0.0476,0.0475,0.0479,0.0475,0.0475,0.0474,0.0474,0.0474,0.0479,0.048,0.048,0.048,0,0.0498,0.0497,0.0496,0.0495,0.0494,0.0493,0.0492,0.0492,0.0488,0.0488,0.0488,0.0487,0.0487,0.0487,0.0486,0.0484,0.0481,0.0481,0.0482,0.0482,0.0483,0.0482,0.0471,0.0481,0.0481,0.0481,0.0481,0.048,0.0506,0.0507,0.0504,0.0504,0.0502,0.0501,0.0502,0.0499,0.0499,0.0498,0.0496,0.0496,0.0494,0.0492,0.0491,0.0492,0.049,0.0491,0.0491,0.0491,0.0491,0.0483,0.0492,0.0492,0.0491,0.0491,0.0491,0,0.0515,0.0513,0.0513,0.0511,0.0511,0.0508,0.0506,0.0506,0.0506,0.0505,0.0504,0.0504,0.0503,0.0501,0.05,0.0501,0.0499,0.0501,0.05,0.05,0.0493,0.0493,0.0502,0.0502,0.0502,0.0502,0.0502,0.0502,0.052,0.0521,0.0519,0.0519,0.0517,0.0517,0.0517,0.0515,0.0514,0.0514,0.0513,0.0512,0.051,0.0509,0.0508,0.0508,0.0507,0.0509,0.0508,0.0502,0.0501,0.05,0.0499,0.0509,0.0509,0.0515,0.0515,0.0515]},{"header":{"parameterUnit":"m.s-1","parameterCategory":1,"la1":30.2991,"la2":30.254,"lo1":-89.0895,"lo2":-89.0444,"dy":0.0017,"dx":0.0017,"nx":28,"ny":28,"refTime":"2025-09-14T03:00:00:Z","depth":0,"parameterNumber":3,"parameterNumberName":"V-component_of_WINDS"},"data":[0,0,0,0,0,0,0,0,0,0,0,0,0,0,0,0,0,0,0,0,0,0,0,0,0,0,0,0,0,0,0,0,0,0,0,0,0,0,0,0,0,0,0,0,0,0,0,0,0,0,0,0,0,0,0,0,0,0,2.531,2.5309,0,2.5219,2.5218,2.5217,2.5164,2.5164,2.5163,2.5163,2.5062,2.506,2.5057,0,0,0,0,0,0,0,0,0,0,0,0,0,2.5432,2.543,2.531,2.5309,2.5308,2.5219,2.5218,2.5216,2.5164,2.5164,2.5163,2.5163,2.5063,2.506,2.5057,0,0,0,0,0,0,0,0,0,0,0,0,0,2.5364,2.5429,2.531,2.5271,2.5267,2.5219,2.5218,2.5216,2.5164,2.5164,2.5163,2.5163,2.5064,2.5061,2.5057,2.5039,0,0,2.5045,2.5044,0,0,0,0,0,0,0,0,2.5367,2.5359,2.5278,2.5274,2.5269,2.5203,2.5223,2.5156,2.5164,2.5203,2.5163,2.5163,2.5109,2.5101,2.5084,2.5034,2.503,2.5045,2.5043,2.5041,2.504,0,0,0,0,0,0,0,2.5372,2.5363,2.5274,2.5277,2.5271,2.5256,2.5246,2.521,2.5158,2.5199,2.5195,2.5186,2.5106,2.5088,2.5082,2.5028,2.5045,2.5042,2.5039,2.5038,2.4956,2.4956,0,0,0,0,0,0,2.5384,2.5367,2.5277,2.5271,2.5319,2.5254,2.5243,2.5224,2.5158,2.5148,2.5186,2.5184,2.5095,2.5086,2.5078,2.5052,2.5041,2.5037,2.5035,2.4956,2.4956,2.4957,0,0,0,0,0,0,2.5387,2.5377,2.528,2.5318,2.5305,2.5252,2.5232,2.5222,2.5205,2.5148,2.5138,2.5178,2.5094,2.5083,2.5049,2.5047,2.5036,2.5032,2.4956,2.4956,2.4956,2.5,0,0,0,0,0,0,2.5391,2.5378,2.5373,2.5318,2.5303,2.5256,2.5231,2.5221,2.5199,2.5195,2.5138,2.5128,2.5093,2.5055,2.5045,2.5042,2.5029,2.4956,2.4956,2.4956,2.4998,2.5001,2.5004,0,0,0,0,0,2.5395,2.5387,2.5373,2.5362,2.5295,2.5256,2.5246,2.5208,2.5199,2.5192,2.5156,2.513,2.5049,2.5052,2.5041,2.5036,2.4956,2.4956,2.4956,2.4997,2.5001,2.5004,0,0,0,0,0,0,2.544,2.5379,2.5363,2.5337,2.5302,2.5247,2.5237,2.5214,2.5179,2.5176,2.5128,2.5116,2.5086,2.5057,2.5061,2.5014,2.5,2.4998,2.5034,2.5037,2.504,2.5047,2.5026,0,0,0,0,0,2.5448,2.5423,2.537,2.5353,2.5336,2.529,2.5271,2.5245,2.5206,2.519,2.5151,2.5112,2.5078,2.5056,2.5021,2.4994,2.4979,2.4985,2.4988,2.499,2.4989,2.497,2.4972,2.4957,2.4957,2.4957,0,0,2.5462,2.5426,2.5413,2.5361,2.5331,2.5304,2.5278,2.525,2.5229,2.5185,2.5151,2.5121,2.5074,2.5043,2.5027,2.5018,2.499,2.4991,2.4993,2.499,2.4971,2.4972,2.4973,2.4957,2.4957,2.4957,0,0,2.5474,2.5445,2.5427,2.5398,2.5353,2.5322,2.5318,2.5266,2.5245,2.521,2.5176,2.5149,2.5091,2.5059,2.5035,2.5034,2.5008,2.5024,2.5038,2.5021,2.5022,2.5023,2.5021,2.5021,2.5022,2.5022,2.5023,0,2.5497,2.5458,2.542,2.5395,2.5372,2.5333,2.5313,2.5285,2.5231,2.5215,2.5206,2.5132,2.5098,2.5058,2.5058,2.504,2.5031,2.503,2.5026,2.5026,2.5026,2.5024,2.5023,2.5025,2.5024,2.5024,2.5024,0,2.5487,2.546,2.545,2.5401,2.5377,2.5354,2.5311,2.529,2.5266,2.5235,2.5199,2.5157,2.5112,2.5101,2.5076,2.5056,2.5052,2.5035,2.5019,2.503,2.5027,2.5026,2.5028,2.5027,2.5026,2.5026,0,0,2.5525,2.5456,2.5452,2.5429,2.5377,2.5354,2.5328,2.5287,2.527,2.5233,2.5209,2.5161,2.5145,2.5118,2.5088,2.5073,2.5074,2.5058,2.5056,2.5061,2.5048,2.5061,2.5061,2.5057,2.5056,2.5056,2.5051,0,2.5529,2.5484,2.5449,2.5416,2.539,2.5352,2.5329,2.5293,2.5263,2.5234,2.52,2.5167,2.5148,2.5132,2.5115,2.5077,2.507,2.5077,2.5031,2.503,2.5044,2.5059,2.5073,2.507,2.505,2.505,2.505,0,2.5527,2.5495,2.546,2.541,2.5397,2.5378,2.5337,2.5311,2.5268,2.5247,2.5217,2.5187,2.5155,2.5143,2.5097,2.5103,2.5082,2.506,2.5059,2.5053,2.504,2.5052,2.5069,2.5068,2.5048,2.5048,2.5048,0,2.5558,2.5504,2.5476,2.5458,2.5399,2.5386,2.536,2.5318,2.5295,2.5257,2.5242,2.5201,2.5178,2.5145,2.5104,2.5099,2.5062,2.5047,2.5042,2.5043,2.5035,2.5036,2.5048,2.5023,2.5023,2.5023,2.5023,0,2.5565,2.5545,2.5489,2.5472,2.5448,2.5406,2.5382,2.5353,2.5315,2.529,2.5253,2.523,2.5177,2.5146,2.5113,2.5079,2.5069,2.505,2.5041,2.5053,2.5055,2.5038,2.5036,2.5023,2.5023,2.5023,2.5023,0,2.5594,2.5556,2.5524,2.5471,2.5457,2.5441,2.5394,2.5375,2.5343,2.5311,2.5301,2.525,2.5212,2.5168,2.5114,2.5092,2.506,2.5048,2.5076,2.507,2.5068,2.5068,2.5068,2.5065,2.5044,2.5044,2.5044,0,2.5601,2.5586,2.5532,2.5513,2.5489,2.546,2.5437,2.5394,2.5371,2.5321,2.5307,2.5266,2.5232,2.5171,2.5128,2.5086,2.5072,2.5074,2.5065,2.5077,2.507,2.5072,2.5069,2.5077,2.5077,2.5078,2.5078,0,2.5618,2.56,2.5569,2.5532,2.5506,2.5474,2.544,2.5426,2.5376,2.5352,2.5313,2.5287,2.5233,2.5192,2.5145,2.5115,2.5087,2.5082,2.5078,2.5089,2.5106,2.5096,2.5082,2.5082,2.5081,2.5081,2.5081,2.5081,2.5635,2.5619,2.5578,2.5545,2.5516,2.5485,2.5464,2.543,2.5398,2.5353,2.5329,2.529,2.5246,2.518,2.5151,2.5119,2.5109,2.5105,2.5103,2.5102,2.5105,2.5112,2.511,2.511,2.5109,2.5109,2.5109,0,2.5648,2.5621,2.5591,2.5546,2.5519,2.5498,2.5459,2.5437,2.5405,2.5367,2.5334,2.5289,2.5249,2.5203,2.5159,2.5142,2.5128,2.5132,2.5132,2.5125,2.5116,2.5124,2.5144,2.5144,2.5144,2.5144,2.5144,2.5144,2.5652,2.5624,2.5601,2.5556,2.5527,2.5491,2.5471,2.5441,2.5411,2.5363,2.5331,2.5302,2.5259,2.5212,2.5174,2.5161,2.5146,2.5153,2.5136,2.5129,2.5126,2.5123,2.513,2.5151,2.5151,2.5148,2.5148,2.5148]}]]